CAPE
nan nan 0 1 1 1 1 2 1 1 1 1 1 1 1 2 2 2 2 0 0 0 1 3 3 1 0 1 3 3 4 4 4 4 3 2 2 2 2 1 1 0 0 nan nan nan nan nan nan nan nan nan nan nan nan 0 0 2 3 5 5 9 12 10 10 9 9 9 9 9 13 14 16 16 18 19 19 19 17 17 17 18 18 20 20 22
nan 0 1 1 1 2 1 3 3 3 1 1 1 1 1 1 1 1 nan nan nan 0 nan 0 0 1 nan 0 2 2 3 4 5 5 5 4 3 3 3 2 2 1 1 0 0 0 nan nan nan nan nan nan nan nan nan nan nan 0 1 2 2 4 4 4 4 5 5 6 8 8 12 13 14 14 15 17 18 18 18 21 21 19 20 21 21 22
nan 0 1 2 2 1 1 3 3 3 3 1 2 2 2 2 2 2 nan nan nan nan nan nan nan nan nan nan 1 1 2 4 5 5 6 6 5 5 4 3 3 2 1 1 1 0 nan nan nan nan nan nan 0 0 0 1 1 1 1 1 1 1 1 1 1 1 1 4 6 6 10 13 12 12 12 13 16 16 19 19 19 18 18 17 17 20
nan nan 1 2 2 3 2 3 2 2 4 2 3 3 3 2 3 3 0 nan nan nan nan nan nan nan nan nan nan nan 1 2 2 2 2 3 2 2 2 1 1 1 1 1 1 nan nan nan nan nan nan 0 1 1 1 3 3 2 1 0 0 0 nan nan nan nan nan 1 4 4 8 10 11 11 10 12 14 14 15 16 16 13 14 15 15 22
nan nan 1 2 2 3 3 3 2 2 2 3 2 2 2 2 2 2 1 0 0 nan nan nan nan nan nan nan nan nan nan nan nan nan nan nan nan nan nan nan nan nan nan 0 0 0 0 0 0 nan nan 0 2 2 2 1 1 1 1 0 0 nan nan nan nan nan nan nan 2 2 6 9 9 9 10 11 13 13 14 13 13 14 14 17 17 26
nan nan 1 1 1 1 3 3 1 1 1 1 1 1 1 0 1 1 1 0 0 nan nan nan nan nan nan nan nan nan nan nan nan nan nan nan nan nan nan nan nan nan nan nan nan nan 0 nan nan nan nan nan nan nan 0 nan nan nan nan nan nan nan nan nan nan nan nan nan 0 0 4 7 9 9 12 13 15 15 17 18 18 19 20 22 22 27
nan 0 2 1 1 2 3 2 1 1 1 1 0 0 nan nan nan nan nan nan nan nan nan nan nan nan nan nan nan nan nan nan nan nan nan nan nan nan nan nan nan nan nan nan nan nan nan nan nan nan nan nan nan nan nan nan nan nan nan nan nan nan nan nan nan nan nan nan nan nan 1 6 10 10 11 14 17 17 20 22 22 25 25 26 26 27
nan 0 1 1 1 1 1 2 0 0 0 0 nan nan nan nan nan nan nan nan nan nan nan nan nan nan nan nan nan nan nan nan nan nan nan nan nan nan nan nan nan nan nan nan nan nan nan nan nan nan nan nan nan nan nan nan nan nan nan nan nan nan nan nan nan nan nan nan nan nan nan 0 5 5 10 13 17 17 18 20 20 22 24 26 26 30
nan 0 1 1 1 0 1 1 0 0 0 1 nan nan nan nan nan nan nan nan nan nan nan nan nan nan nan nan nan nan nan nan nan nan nan nan nan nan nan nan nan nan nan nan nan nan nan nan nan nan nan nan nan nan nan nan nan nan nan nan nan nan nan nan nan nan nan nan nan nan nan 0 3 3 6 10 13 13 16 16 16 17 19 23 23 28
1 0 0 0 0 2 0 0 0 0 nan nan nan nan nan nan nan nan nan nan nan nan nan nan nan nan nan nan nan nan nan nan nan nan nan nan nan nan nan nan nan nan nan nan nan nan nan nan nan nan nan nan nan nan nan nan nan nan nan nan nan nan nan nan nan nan nan nan nan nan nan 0 2 2 4 7 10 10 11 11 11 10 13 18 18 25
0 0 0 0 0 1 1 0 nan nan nan nan nan nan nan nan nan nan nan nan nan nan nan nan nan nan nan nan nan nan nan nan nan nan nan nan nan nan nan nan nan nan nan nan nan nan nan nan nan nan nan nan nan nan nan nan nan nan nan nan nan nan nan nan nan nan nan nan nan nan nan 0 2 2 4 5 7 7 7 8 8 6 9 14 14 21
nan 0 0 0 0 0 0 nan nan nan nan nan nan nan nan nan nan nan nan nan nan nan nan nan nan nan nan nan nan nan nan nan nan nan nan nan nan nan nan nan nan nan nan nan nan nan nan nan nan nan nan nan nan nan nan nan nan nan nan nan nan nan nan nan nan nan nan nan nan nan nan 0 3 3 4 5 6 6 6 6 6 7 9 14 14 20
nan nan nan nan nan nan nan nan nan nan nan nan nan nan nan nan nan nan nan nan nan nan nan nan nan nan nan nan nan nan nan nan nan nan nan nan nan nan nan nan nan nan nan nan nan nan nan nan nan nan nan nan nan nan nan nan nan nan nan nan nan nan nan nan nan nan nan nan nan nan 0 0 2 2 3 5 5 5 6 7 7 8 10 16 16 20
nan nan nan nan nan nan nan nan nan nan nan nan nan nan nan nan nan nan nan nan nan nan nan nan nan nan nan nan nan nan nan nan nan nan nan nan nan nan nan nan nan nan nan nan nan nan nan nan nan nan nan nan nan nan nan nan nan nan nan nan nan nan nan nan nan nan nan nan nan nan 0 0 1 1 3 5 5 5 7 7 7 10 13 15 15 18
nan nan nan nan nan nan nan nan nan nan nan nan nan nan nan nan nan nan nan nan nan nan nan nan nan nan nan nan nan nan nan nan nan nan nan nan nan nan nan nan nan nan nan nan nan nan nan nan nan nan nan nan nan nan nan nan nan nan nan nan nan nan nan nan nan nan nan nan nan nan 0 1 2 2 4 5 6 6 8 9 9 10 13 13 13 16
nan nan nan nan nan nan nan nan nan nan nan nan nan nan nan nan nan nan nan nan nan nan nan nan nan nan nan nan nan nan nan nan nan nan nan nan nan nan nan nan nan nan nan nan nan nan nan nan nan nan nan nan nan nan nan nan nan nan nan nan nan nan 0 1 1 1 1 1 2 2 2 2 4 4 4 6 7 7 8 9 9 11 12 13 13 12
nan nan nan nan nan nan nan nan nan nan nan nan nan nan nan nan nan nan nan nan nan nan nan nan nan nan nan nan nan nan nan nan nan nan nan nan nan nan nan nan nan nan nan nan nan nan nan nan nan nan nan nan nan nan nan nan nan nan nan nan nan 0 1 3 3 3 4 4 4 4 4 5 5 5 5 6 7 7 8 8 8 8 9 9 9 10
nan nan nan nan nan nan nan nan nan nan nan nan nan nan nan nan nan nan nan nan nan nan nan nan nan nan nan nan nan nan nan nan nan nan nan nan nan nan nan nan nan nan nan nan nan nan nan nan nan nan nan nan nan nan nan nan nan nan nan nan nan 0 1 2 2 4 6 6 6 6 6 6 6 6 7 6 6 6 7 6 6 7 8 8 8 9
nan nan nan nan nan nan nan nan nan nan nan nan nan nan nan nan nan nan nan nan nan nan nan nan nan nan nan nan nan nan nan nan nan nan nan nan nan nan nan nan nan nan nan nan nan nan nan nan nan nan nan nan nan nan nan nan nan nan nan nan nan nan 0 1 1 4 5 6 7 7 7 7 7 7 7 6 6 6 7 7 7 7 7 7 7 8
nan nan nan nan nan nan nan nan nan nan nan nan nan nan nan nan nan nan nan nan nan nan nan nan nan nan nan nan nan nan nan nan nan nan nan nan nan nan nan nan nan nan nan nan nan nan nan nan nan nan nan nan nan nan nan nan nan nan nan nan nan nan 0 1 1 2 4 5 6 6 7 6 6 6 7 5 6 6 6 7 7 6 7 7 7 7
nan nan nan nan nan nan nan nan nan nan nan nan nan nan nan nan nan nan nan nan nan nan nan nan nan nan nan nan nan nan nan nan nan nan nan nan nan nan nan nan nan nan nan nan nan nan nan nan nan nan nan nan nan nan nan nan nan nan nan nan nan nan 0 1 1 1 2 3 5 5 5 5 5 5 5 5 5 5 5 5 5 5 6 6 6 7
nan nan nan nan nan nan nan nan nan nan nan nan nan nan nan nan nan nan nan nan nan nan nan nan nan nan nan nan nan nan nan nan nan nan nan nan nan nan nan nan nan nan nan nan nan nan nan nan nan nan nan nan nan nan nan nan nan nan nan nan nan nan nan 0 0 0 1 2 3 3 4 4 4 4 5 5 4 4 5 5 5 5 5 6 6 7
nan nan nan nan nan nan nan nan nan nan nan nan nan nan nan nan nan nan nan nan nan nan nan nan nan nan nan nan nan nan nan nan nan nan nan nan nan nan nan nan nan nan nan nan nan nan nan nan nan nan nan nan nan nan nan nan nan nan nan nan nan nan nan nan nan 0 1 2 3 3 4 4 5 5 5 4 5 5 5 5 5 5 6 7 7 8
nan nan nan nan nan nan nan nan nan nan nan nan nan nan nan nan nan nan nan nan nan nan nan nan nan nan nan nan nan nan nan nan nan nan nan nan nan nan nan nan nan nan nan nan nan nan nan nan nan nan nan nan nan nan nan nan nan nan nan nan nan nan nan 0 0 1 1 2 3 3 3 3 4 4 3 4 4 4 4 5 5 5 6 6 6 8
nan nan nan nan nan nan nan nan nan nan nan nan nan nan nan nan nan nan nan nan nan nan nan nan nan nan nan nan nan nan nan nan nan nan nan nan nan nan nan nan nan nan nan nan nan nan nan nan nan nan nan nan nan nan nan nan nan nan nan nan nan nan 0 0 0 0 0 1 1 1 1 2 1 1 2 2 3 3 4 4 4 5 5 5 5 6
nan nan nan nan nan nan nan nan 0 0 nan nan nan nan nan nan nan nan nan nan nan nan nan nan nan nan nan nan nan nan nan nan nan nan nan nan nan nan nan nan nan nan nan nan nan nan nan nan nan nan nan nan nan nan nan nan nan nan nan nan nan nan nan nan nan nan nan nan 0 0 0 0 1 1 1 1 1 1 2 3 3 3 4 4 4 4
nan 0 0 0 0 nan nan nan nan nan nan nan nan nan nan nan nan nan nan nan nan nan nan nan nan nan nan nan nan nan nan nan nan nan nan nan nan nan nan nan nan nan nan nan nan nan nan nan nan nan nan nan nan nan nan nan nan nan nan nan nan nan nan nan nan nan nan nan nan nan nan nan 0 0 0 1 1 1 2 2 2 3 3 3 3 4
1 0 0 nan nan nan nan nan nan nan nan nan nan nan nan nan nan nan nan nan nan nan nan nan nan nan nan nan nan nan nan nan nan nan nan nan nan nan nan nan nan nan nan nan nan nan nan nan nan nan nan nan nan nan nan nan nan nan nan nan nan nan nan nan nan nan nan nan nan nan nan nan nan nan 0 0 1 1 1 2 2 2 3 1 1 nan
nan nan nan nan nan nan nan nan nan nan nan nan nan nan nan nan nan nan nan nan nan nan nan nan nan nan nan nan nan nan nan nan nan nan nan nan nan nan nan nan nan nan nan nan nan nan nan nan nan nan nan nan nan nan nan nan nan nan nan nan nan nan nan nan nan nan nan nan nan nan nan nan nan nan nan 0 0 0 1 1 1 3 2 nan nan nan
nan nan nan nan nan nan nan nan nan nan nan nan nan nan nan nan nan nan nan nan nan nan nan nan nan nan nan nan nan nan nan nan nan nan nan nan nan nan nan nan nan nan nan nan nan nan nan nan nan nan nan nan nan nan nan nan nan nan nan nan nan nan nan nan nan nan nan nan nan nan nan nan nan nan nan 0 0 0 1 1 1 1 nan nan nan nan
nan nan nan nan nan nan nan nan nan nan nan nan nan nan nan nan nan nan nan nan nan nan nan nan nan nan nan nan nan nan nan nan nan nan nan nan nan nan nan nan nan nan nan nan nan nan nan nan nan nan nan nan nan nan nan nan nan nan nan nan nan nan nan nan nan nan nan nan nan nan nan nan nan nan nan 0 0 0 1 1 1 1 nan nan nan nan
nan nan nan nan nan nan nan nan nan nan nan nan nan nan nan nan nan nan nan nan nan nan nan nan nan nan nan nan nan nan nan nan nan nan nan nan nan nan nan nan nan nan nan nan nan nan nan nan nan nan nan nan nan nan nan nan nan nan nan nan nan nan nan nan nan nan nan nan nan nan nan nan nan nan nan nan 0 0 1 2 2 1 nan nan nan nan
nan nan nan nan nan nan nan nan nan nan nan nan nan nan nan nan nan nan nan nan nan nan nan nan nan nan nan nan nan nan nan nan nan nan nan nan nan nan nan nan nan nan nan nan nan nan nan nan nan nan nan nan nan nan nan nan nan nan nan nan nan nan nan nan nan nan nan nan nan nan nan nan nan nan nan nan nan nan 0 1 1 2 1 nan nan nan
nan nan nan nan nan nan nan nan nan nan nan nan nan nan nan nan nan nan nan nan nan nan nan nan nan nan nan nan nan nan nan nan nan nan nan nan nan nan nan nan nan nan nan nan nan nan nan nan nan nan nan nan nan nan nan nan nan nan nan nan nan nan nan nan nan nan nan nan nan nan nan nan nan nan nan nan nan nan 0 1 1 2 3 nan nan nan
nan nan nan nan nan nan nan nan nan nan nan nan nan nan nan nan nan nan nan nan nan nan nan nan nan nan nan nan nan nan nan nan nan nan nan nan nan nan nan nan nan nan nan nan nan nan nan nan nan nan nan nan nan nan nan nan nan nan nan nan nan nan nan nan nan nan nan nan nan nan nan nan nan nan nan nan nan nan 0 1 1 2 3 5 5 1
nan nan nan nan nan nan nan nan nan nan nan nan nan nan nan nan nan nan nan nan nan nan nan nan nan nan nan nan nan nan nan nan nan nan nan nan nan nan nan nan nan nan nan nan nan nan nan nan nan nan nan nan nan nan nan nan nan nan nan nan nan nan nan nan nan nan nan nan nan nan nan nan nan nan nan nan nan nan 0 1 1 2 3 5 5 6
nan nan nan nan nan nan nan nan nan nan nan nan nan nan nan nan nan nan nan nan nan nan nan nan nan nan nan nan nan nan nan nan nan nan nan nan nan nan nan nan nan nan nan nan nan nan nan nan nan nan nan nan nan nan nan nan nan nan nan nan nan nan nan nan nan nan nan nan nan nan nan nan nan nan nan nan nan nan 0 1 1 2 3 4 4 5
nan nan nan nan nan nan nan nan nan nan nan nan nan nan nan nan nan nan nan nan nan nan nan nan nan nan nan nan nan nan nan nan nan nan nan nan nan nan nan nan nan nan nan nan nan nan nan nan nan nan nan nan nan nan nan nan nan nan nan nan nan nan nan nan nan nan nan nan nan nan nan nan nan nan nan nan nan nan nan nan nan nan 1 2 2 4
nan nan nan nan nan nan nan nan nan nan nan nan nan nan nan nan nan nan nan nan nan nan nan nan nan nan nan nan nan nan nan nan nan nan nan nan nan nan nan nan nan nan nan nan nan nan nan nan nan nan nan nan nan nan nan nan nan nan nan nan nan nan nan nan nan nan nan nan nan nan nan nan nan nan nan nan nan nan nan nan nan nan nan nan nan nan
nan nan nan nan nan nan nan nan nan nan nan nan nan nan nan nan nan nan nan nan nan nan nan nan nan nan nan nan nan nan nan nan nan nan nan nan nan nan nan nan nan nan nan nan nan nan nan nan nan nan nan nan nan nan nan nan nan nan nan nan nan nan nan nan nan nan nan nan nan nan nan nan nan nan nan nan nan nan nan nan nan nan nan nan nan nan
nan nan nan nan nan nan nan nan nan nan nan nan nan nan nan nan nan nan nan nan nan nan nan nan nan nan nan nan nan nan nan nan nan nan nan nan nan nan nan nan nan nan nan nan nan nan nan nan nan nan nan nan 0 0 0 nan nan nan nan nan nan nan nan nan nan nan nan nan nan nan nan nan nan nan nan nan nan nan nan nan nan nan nan nan nan nan
nan nan nan nan nan nan nan nan nan nan nan nan nan nan nan nan nan nan nan nan nan nan nan nan nan nan nan nan nan nan nan nan nan nan nan nan nan nan nan nan nan nan nan nan nan nan nan nan nan nan nan nan nan nan nan nan nan nan nan nan nan nan nan nan nan nan nan nan nan nan nan nan nan nan nan nan nan nan nan nan nan nan nan nan nan nan
nan nan nan nan nan nan nan nan nan nan nan nan nan nan nan nan nan nan nan nan nan nan nan nan nan nan nan nan nan nan nan nan nan nan nan nan nan nan nan nan nan nan nan nan nan nan nan nan nan nan nan nan nan nan nan nan nan nan nan nan nan nan nan nan nan nan nan nan nan nan nan nan nan nan nan nan nan nan nan nan nan nan nan nan nan nan
nan nan nan nan nan nan nan nan nan nan nan nan nan nan nan nan nan nan nan nan nan nan nan nan nan nan nan nan nan nan nan nan nan nan nan nan nan nan nan nan nan nan nan nan nan nan nan nan nan nan nan nan nan nan nan nan nan nan nan nan nan nan nan nan nan nan nan nan nan nan nan nan nan nan nan nan nan nan nan nan nan nan nan nan nan nan
nan nan nan nan nan nan nan nan nan nan nan nan nan nan nan nan nan nan nan nan nan nan nan nan nan nan nan nan nan nan nan nan nan nan nan nan nan nan nan nan nan nan nan nan nan nan nan nan nan nan nan nan nan nan nan nan nan nan nan nan nan nan nan nan nan nan nan nan nan nan nan nan nan nan nan nan nan nan nan nan nan nan nan nan nan nan
nan nan nan nan nan nan nan nan nan nan nan nan nan nan nan nan nan nan nan nan nan nan nan nan nan nan nan nan nan nan nan nan nan nan nan nan nan nan nan nan nan nan nan nan nan 0 nan nan nan nan nan nan nan nan nan nan nan nan nan nan nan nan nan nan nan nan nan nan nan nan nan nan nan nan nan nan nan nan nan nan nan nan nan nan nan nan
nan nan nan nan nan nan nan nan nan nan nan nan nan nan nan nan nan nan nan nan nan nan nan nan nan nan nan nan nan nan nan nan nan nan nan nan nan nan nan nan nan nan nan 0 0 0 0 nan nan nan nan nan nan nan nan nan nan nan nan nan nan nan nan nan nan nan nan nan nan nan nan nan nan nan nan nan nan nan nan nan nan nan nan nan nan nan
nan nan nan nan nan nan nan nan nan nan nan nan nan nan nan nan nan nan nan nan nan nan nan nan nan nan nan nan nan nan nan nan nan nan nan nan nan nan nan nan nan 0 1 1 1 1 0 nan nan nan nan nan nan nan nan nan nan nan nan nan nan nan nan nan nan nan nan nan nan nan nan nan nan nan nan nan nan nan nan nan nan nan nan nan nan nan
nan nan nan nan nan nan nan nan nan nan nan nan nan nan nan nan nan nan nan nan nan nan nan nan nan nan nan nan nan nan nan nan nan nan nan nan nan nan nan nan nan nan nan nan nan nan nan nan nan nan nan nan nan nan nan nan nan nan nan nan nan nan nan nan nan nan nan nan nan nan nan nan nan nan nan nan nan nan nan nan nan nan nan nan nan nan
nan nan nan nan nan nan nan nan nan nan nan nan nan nan nan nan nan nan nan nan nan nan nan nan nan nan nan nan nan nan nan nan nan nan nan nan nan nan nan nan nan nan nan nan nan nan nan nan nan nan 1 nan nan nan nan nan nan nan nan nan nan nan nan nan nan nan nan nan nan nan nan nan nan nan nan nan nan nan nan nan nan nan nan nan nan nan
nan nan nan nan nan nan nan nan nan nan nan nan nan nan nan nan nan nan nan nan nan nan nan nan nan nan nan nan nan nan nan nan nan nan nan nan nan nan nan nan nan nan nan nan nan nan nan nan nan nan nan 3 nan nan nan nan nan nan nan nan nan nan nan nan nan nan nan nan nan nan nan nan 1 1 0 nan nan nan nan nan nan nan nan nan nan nan
CIN
nan nan 0 0 0 0 0 0 0 0 0 0 0 0 0 0 0 0 0 -0 -0 -0 0 0 0 -0 0 0 0 0 0 0 0 0 0 0 0 0 0 0 0 0 0 nan nan nan nan nan nan nan nan nan nan nan nan 0 0 0 0 0 0 0 0 0 0 0 0 0 0 0 0 0 0 0 0 0 0 0 0 0 0 0 0 0 0 0
nan 0 0 0 0 0 0 0 0 0 0 0 0 0 0 0 0 0 nan nan nan -0 nan -0 -0 -0 nan 0 0 0 0 0 0 0 0 0 0 0 0 0 0 0 0 0 0 0 nan nan nan nan nan nan nan nan nan nan nan 0 0 0 0 0 0 0 0 0 0 0 0 0 0 0 0 0 0 0 0 0 0 0 0 0 0 0 0 0
nan 0 0 0 0 0 0 0 0 0 0 0 0 0 0 0 0 0 nan nan nan nan nan nan nan nan nan nan 0 0 0 0 0 0 0 0 0 0 0 0 0 0 0 0 0 -0 nan nan nan nan nan nan -0 -0 -0 0 0 0 0 0 0 0 0 0 0 0 0 0 0 0 0 0 0 0 0 0 0 0 0 0 0 0 0 0 0 0
nan nan 0 0 0 0 0 0 0 0 0 0 0 0 0 0 0 0 -0 nan nan nan nan nan nan nan nan nan nan nan 0 0 0 0 0 0 0 0 0 0 0 0 0 0 0 nan nan nan nan nan nan 0 0 0 0 0 0 0 0 0 0 0 nan nan nan nan nan 0 0 0 0 0 0 0 0 0 0 0 0 0 0 0 0 0 0 0
nan nan 0 0 0 0 -0 0 0 0 0 0 0 0 0 -0 0 0 -0 -0 -0 nan nan nan nan nan nan nan nan nan nan nan nan nan nan nan nan nan nan nan nan nan nan -0 -0 0 -0 -0 -0 nan nan -0 0 0 0 0 0 0 0 0 0 nan nan nan nan nan nan nan 0 0 0 0 0 0 0 0 0 0 0 0 0 0 0 0 0 0
nan nan 0 0 0 0 0 0 0 0 0 0 0 0 0 0 0 0 -2 -2 -2 nan nan nan nan nan nan nan nan nan nan nan nan nan nan nan nan nan nan nan nan nan nan nan nan nan -0 nan nan nan nan nan nan nan -0 nan nan nan nan nan nan nan nan nan nan nan nan nan 0 0 0 0 0 0 0 0 0 0 0 0 0 0 0 0 0 0
nan 0 0 0 0 0 0 0 0 0 0 0 0 0 nan nan nan nan nan nan nan nan nan nan nan nan nan nan nan nan nan nan nan nan nan nan nan nan nan nan nan nan nan nan nan nan nan nan nan nan nan nan nan nan nan nan nan nan nan nan nan nan nan nan nan nan nan nan nan nan 0 0 0 0 0 0 0 0 0 0 0 0 0 0 0 0
nan 0 0 0 0 0 0 0 0 0 0 0 nan nan nan nan nan nan nan nan nan nan nan nan nan nan nan nan nan nan nan nan nan nan nan nan nan nan nan nan nan nan nan nan nan nan nan nan nan nan nan nan nan nan nan nan nan nan nan nan nan nan nan nan nan nan nan nan nan nan nan 0 0 0 0 0 0 0 0 0 0 0 0 0 0 0
nan 0 0 0 0 0 0 0 0 0 0 0 nan nan nan nan nan nan nan nan nan nan nan nan nan nan nan nan nan nan nan nan nan nan nan nan nan nan nan nan nan nan nan nan nan nan nan nan nan nan nan nan nan nan nan nan nan nan nan nan nan nan nan nan nan nan nan nan nan nan nan 0 0 0 0 0 0 0 0 0 0 0 0 0 0 0
-1 0 0 0 0 0 0 0 0 0 nan nan nan nan nan nan nan nan nan nan nan nan nan nan nan nan nan nan nan nan nan nan nan nan nan nan nan nan nan nan nan nan nan nan nan nan nan nan nan nan nan nan nan nan nan nan nan nan nan nan nan nan nan nan nan nan nan nan nan nan nan 0 0 0 0 0 0 0 0 0 0 0 0 0 0 0
0 0 0 0 0 0 0 -0 nan nan nan nan nan nan nan nan nan nan nan nan nan nan nan nan nan nan nan nan nan nan nan nan nan nan nan nan nan nan nan nan nan nan nan nan nan nan nan nan nan nan nan nan nan nan nan nan nan nan nan nan nan nan nan nan nan nan nan nan nan nan nan 0 0 0 0 0 0 0 0 0 0 0 0 0 0 0
nan -0 -0 0 0 0 0 nan nan nan nan nan nan nan nan nan nan nan nan nan nan nan nan nan nan nan nan nan nan nan nan nan nan nan nan nan nan nan nan nan nan nan nan nan nan nan nan nan nan nan nan nan nan nan nan nan nan nan nan nan nan nan nan nan nan nan nan nan nan nan nan 0 0 0 0 0 0 0 0 0 0 0 0 0 0 0
nan nan nan nan nan nan nan nan nan nan nan nan nan nan nan nan nan nan nan nan nan nan nan nan nan nan nan nan nan nan nan nan nan nan nan nan nan nan nan nan nan nan nan nan nan nan nan nan nan nan nan nan nan nan nan nan nan nan nan nan nan nan nan nan nan nan nan nan nan nan 0 0 0 0 0 0 0 0 0 0 0 0 0 0 0 0
nan nan nan nan nan nan nan nan nan nan nan nan nan nan nan nan nan nan nan nan nan nan nan nan nan nan nan nan nan nan nan nan nan nan nan nan nan nan nan nan nan nan nan nan nan nan nan nan nan nan nan nan nan nan nan nan nan nan nan nan nan nan nan nan nan nan nan nan nan nan 0 0 0 0 0 0 0 0 0 0 0 0 0 0 0 0
nan nan nan nan nan nan nan nan nan nan nan nan nan nan nan nan nan nan nan nan nan nan nan nan nan nan nan nan nan nan nan nan nan nan nan nan nan nan nan nan nan nan nan nan nan nan nan nan nan nan nan nan nan nan nan nan nan nan nan nan nan nan nan nan nan nan nan nan nan nan 0 0 0 0 0 0 0 0 0 0 0 0 0 0 0 0
nan nan nan nan nan nan nan nan nan nan nan nan nan nan nan nan nan nan nan nan nan nan nan nan nan nan nan nan nan nan nan nan nan nan nan nan nan nan nan nan nan nan nan nan nan nan nan nan nan nan nan nan nan nan nan nan nan nan nan nan nan nan 0 0 0 0 0 0 0 0 0 0 0 0 0 0 0 0 0 0 0 0 0 0 0 0
nan nan nan nan nan nan nan nan nan nan nan nan nan nan nan nan nan nan nan nan nan nan nan nan nan nan nan nan nan nan nan nan nan nan nan nan nan nan nan nan nan nan nan nan nan nan nan nan nan nan nan nan nan nan nan nan nan nan nan nan nan 0 0 0 0 0 0 0 0 0 0 0 0 0 0 0 0 0 0 0 0 0 0 0 0 0
nan nan nan nan nan nan nan nan nan nan nan nan nan nan nan nan nan nan nan nan nan nan nan nan nan nan nan nan nan nan nan nan nan nan nan nan nan nan nan nan nan nan nan nan nan nan nan nan nan nan nan nan nan nan nan nan nan nan nan nan nan 0 0 0 0 0 0 0 0 0 0 0 0 0 0 0 0 0 0 0 0 0 0 0 0 0
nan nan nan nan nan nan nan nan nan nan nan nan nan nan nan nan nan nan nan nan nan nan nan nan nan nan nan nan nan nan nan nan nan nan nan nan nan nan nan nan nan nan nan nan nan nan nan nan nan nan nan nan nan nan nan nan nan nan nan nan nan nan 0 0 0 0 0 0 0 0 0 0 0 0 0 0 0 0 0 0 0 0 0 0 0 0
nan nan nan nan nan nan nan nan nan nan nan nan nan nan nan nan nan nan nan nan nan nan nan nan nan nan nan nan nan nan nan nan nan nan nan nan nan nan nan nan nan nan nan nan nan nan nan nan nan nan nan nan nan nan nan nan nan nan nan nan nan nan 0 0 0 0 0 0 0 0 0 0 0 0 0 0 0 0 0 0 0 0 0 0 0 0
nan nan nan nan nan nan nan nan nan nan nan nan nan nan nan nan nan nan nan nan nan nan nan nan nan nan nan nan nan nan nan nan nan nan nan nan nan nan nan nan nan nan nan nan nan nan nan nan nan nan nan nan nan nan nan nan nan nan nan nan nan nan 0 0 0 0 0 0 0 0 0 0 0 0 0 0 0 0 0 0 0 0 0 0 0 0
nan nan nan nan nan nan nan nan nan nan nan nan nan nan nan nan nan nan nan nan nan nan nan nan nan nan nan nan nan nan nan nan nan nan nan nan nan nan nan nan nan nan nan nan nan nan nan nan nan nan nan nan nan nan nan nan nan nan nan nan nan nan nan 0 0 0 0 0 0 0 0 0 0 0 0 0 0 0 0 0 0 0 0 0 0 0
nan nan nan nan nan nan nan nan nan nan nan nan nan nan nan nan nan nan nan nan nan nan nan nan nan nan nan nan nan nan nan nan nan nan nan nan nan nan nan nan nan nan nan nan nan nan nan nan nan nan nan nan nan nan nan nan nan nan nan nan nan nan nan nan nan 0 0 0 0 0 0 0 0 0 0 0 0 0 0 0 0 0 0 0 0 0
nan nan nan nan nan nan nan nan nan nan nan nan nan nan nan nan nan nan nan nan nan nan nan nan nan nan nan nan nan nan nan nan nan nan nan nan nan nan nan nan nan nan nan nan nan nan nan nan nan nan nan nan nan nan nan nan nan nan nan nan nan nan nan 0 0 0 0 0 0 0 0 0 0 0 0 0 0 0 0 0 0 0 0 0 0 0
nan nan nan nan nan nan nan nan nan nan nan nan nan nan nan nan nan nan nan nan nan nan nan nan nan nan nan nan nan nan nan nan nan nan nan nan nan nan nan nan nan nan nan nan nan nan nan nan nan nan nan nan nan nan nan nan nan nan nan nan nan nan 0 0 0 0 0 0 0 0 0 0 0 0 0 0 0 0 0 0 0 0 0 0 0 0
nan nan nan nan nan nan nan nan -0 -0 nan nan nan nan nan nan nan nan nan nan nan nan nan nan nan nan nan nan nan nan nan nan nan nan nan nan nan nan nan nan nan nan nan nan nan nan nan nan nan nan nan nan nan nan nan nan nan nan nan nan nan nan nan nan nan nan nan nan 0 0 0 0 0 0 0 0 0 0 0 0 0 0 0 0 0 0
nan -0 0 0 0 nan nan nan nan nan nan nan nan nan nan nan nan nan nan nan nan nan nan nan nan nan nan nan nan nan nan nan nan nan nan nan nan nan nan nan nan nan nan nan nan nan nan nan nan nan nan nan nan nan nan nan nan nan nan nan nan nan nan nan nan nan nan nan nan nan nan nan 0 0 0 0 0 0 0 0 0 0 0 0 0 0
0 0 0 nan nan nan nan nan nan nan nan nan nan nan nan nan nan nan nan nan nan nan nan nan nan nan nan nan nan nan nan nan nan nan nan nan nan nan nan nan nan nan nan nan nan nan nan nan nan nan nan nan nan nan nan nan nan nan nan nan nan nan nan nan nan nan nan nan nan nan nan nan nan nan 0 0 0 0 0 0 0 0 0 0 0 nan
nan nan nan nan nan nan nan nan nan nan nan nan nan nan nan nan nan nan nan nan nan nan nan nan nan nan nan nan nan nan nan nan nan nan nan nan nan nan nan nan nan nan nan nan nan nan nan nan nan nan nan nan nan nan nan nan nan nan nan nan nan nan nan nan nan nan nan nan nan nan nan nan nan nan nan 0 0 0 0 0 0 0 0 nan nan nan
nan nan nan nan nan nan nan nan nan nan nan nan nan nan nan nan nan nan nan nan nan nan nan nan nan nan nan nan nan nan nan nan nan nan nan nan nan nan nan nan nan nan nan nan nan nan nan nan nan nan nan nan nan nan nan nan nan nan nan nan nan nan nan nan nan nan nan nan nan nan nan nan nan nan nan 0 0 0 0 0 0 0 nan nan nan nan
nan nan nan nan nan nan nan nan nan nan nan nan nan nan nan nan nan nan nan nan nan nan nan nan nan nan nan nan nan nan nan nan nan nan nan nan nan nan nan nan nan nan nan nan nan nan nan nan nan nan nan nan nan nan nan nan nan nan nan nan nan nan nan nan nan nan nan nan nan nan nan nan nan nan nan 0 0 0 0 0 0 0 nan nan nan nan
nan nan nan nan nan nan nan nan nan nan nan nan nan nan nan nan nan nan nan nan nan nan nan nan nan nan nan nan nan nan nan nan nan nan nan nan nan nan nan nan nan nan nan nan nan nan nan nan nan nan nan nan nan nan nan nan nan nan nan nan nan nan nan nan nan nan nan nan nan nan nan nan nan nan nan nan 0 0 0 0 0 0 nan nan nan nan
nan nan nan nan nan nan nan nan nan nan nan nan nan nan nan nan nan nan nan nan nan nan nan nan nan nan nan nan nan nan nan nan nan nan nan nan nan nan nan nan nan nan nan nan nan nan nan nan nan nan nan nan nan nan nan nan nan nan nan nan nan nan nan nan nan nan nan nan nan nan nan nan nan nan nan nan nan nan 0 0 0 0 -0 nan nan nan
nan nan nan nan nan nan nan nan nan nan nan nan nan nan nan nan nan nan nan nan nan nan nan nan nan nan nan nan nan nan nan nan nan nan nan nan nan nan nan nan nan nan nan nan nan nan nan nan nan nan nan nan nan nan nan nan nan nan nan nan nan nan nan nan nan nan nan nan nan nan nan nan nan nan nan nan nan nan 0 0 0 0 0 nan nan nan
nan nan nan nan nan nan nan nan nan nan nan nan nan nan nan nan nan nan nan nan nan nan nan nan nan nan nan nan nan nan nan nan nan nan nan nan nan nan nan nan nan nan nan nan nan nan nan nan nan nan nan nan nan nan nan nan nan nan nan nan nan nan nan nan nan nan nan nan nan nan nan nan nan nan nan nan nan nan 0 0 0 0 0 0 0 -2
nan nan nan nan nan nan nan nan nan nan nan nan nan nan nan nan nan nan nan nan nan nan nan nan nan nan nan nan nan nan nan nan nan nan nan nan nan nan nan nan nan nan nan nan nan nan nan nan nan nan nan nan nan nan nan nan nan nan nan nan nan nan nan nan nan nan nan nan nan nan nan nan nan nan nan nan nan nan 0 0 0 0 0 0 0 0
nan nan nan nan nan nan nan nan nan nan nan nan nan nan nan nan nan nan nan nan nan nan nan nan nan nan nan nan nan nan nan nan nan nan nan nan nan nan nan nan nan nan nan nan nan nan nan nan nan nan nan nan nan nan nan nan nan nan nan nan nan nan nan nan nan nan nan nan nan nan nan nan nan nan nan nan nan nan 0 0 0 0 0 0 0 0
nan nan nan nan nan nan nan nan nan nan nan nan nan nan nan nan nan nan nan nan nan nan nan nan nan nan nan nan nan nan nan nan nan nan nan nan nan nan nan nan nan nan nan nan nan nan nan nan nan nan nan nan nan nan nan nan nan nan nan nan nan nan nan nan nan nan nan nan nan nan nan nan nan nan nan nan nan nan nan nan nan nan 0 0 0 0
nan nan nan nan nan nan nan nan nan nan nan nan nan nan nan nan nan nan nan nan nan nan nan nan nan nan nan nan nan nan nan nan nan nan nan nan nan nan nan nan nan nan nan nan nan nan nan nan nan nan nan nan nan nan nan nan nan nan nan nan nan nan nan nan nan nan nan nan nan nan nan nan nan nan nan nan nan nan nan nan nan nan nan nan nan nan
nan nan nan nan nan nan nan nan nan nan nan nan nan nan nan nan nan nan nan nan nan nan nan nan nan nan nan nan nan nan nan nan nan nan nan nan nan nan nan nan nan nan nan nan nan nan nan nan nan nan nan nan nan nan nan nan nan nan nan nan nan nan nan nan nan nan nan nan nan nan nan nan nan nan nan nan nan nan nan nan nan nan nan nan nan nan
nan nan nan nan nan nan nan nan nan nan nan nan nan nan nan nan nan nan nan nan nan nan nan nan nan nan nan nan nan nan nan nan nan nan nan nan nan nan nan nan nan nan nan nan nan nan nan nan nan nan nan nan -2 -2 -2 nan nan nan nan nan nan nan nan nan nan nan nan nan nan nan nan nan nan nan nan nan nan nan nan nan nan nan nan nan nan nan
nan nan nan nan nan nan nan nan nan nan nan nan nan nan nan nan nan nan nan nan nan nan nan nan nan nan nan nan nan nan nan nan nan nan nan nan nan nan nan nan nan nan nan nan nan nan nan nan nan nan nan nan nan nan nan nan nan nan nan nan nan nan nan nan nan nan nan nan nan nan nan nan nan nan nan nan nan nan nan nan nan nan nan nan nan nan
nan nan nan nan nan nan nan nan nan nan nan nan nan nan nan nan nan nan nan nan nan nan nan nan nan nan nan nan nan nan nan nan nan nan nan nan nan nan nan nan nan nan nan nan nan nan nan nan nan nan nan nan nan nan nan nan nan nan nan nan nan nan nan nan nan nan nan nan nan nan nan nan nan nan nan nan nan nan nan nan nan nan nan nan nan nan
nan nan nan nan nan nan nan nan nan nan nan nan nan nan nan nan nan nan nan nan nan nan nan nan nan nan nan nan nan nan nan nan nan nan nan nan nan nan nan nan nan nan nan nan nan nan nan nan nan nan nan nan nan nan nan nan nan nan nan nan nan nan nan nan nan nan nan nan nan nan nan nan nan nan nan nan nan nan nan nan nan nan nan nan nan nan
nan nan nan nan nan nan nan nan nan nan nan nan nan nan nan nan nan nan nan nan nan nan nan nan nan nan nan nan nan nan nan nan nan nan nan nan nan nan nan nan nan nan nan nan nan nan nan nan nan nan nan nan nan nan nan nan nan nan nan nan nan nan nan nan nan nan nan nan nan nan nan nan nan nan nan nan nan nan nan nan nan nan nan nan nan nan
nan nan nan nan nan nan nan nan nan nan nan nan nan nan nan nan nan nan nan nan nan nan nan nan nan nan nan nan nan nan nan nan nan nan nan nan nan nan nan nan nan nan nan nan nan -6 nan nan nan nan nan nan nan nan nan nan nan nan nan nan nan nan nan nan nan nan nan nan nan nan nan nan nan nan nan nan nan nan nan nan nan nan nan nan nan nan
nan nan nan nan nan nan nan nan nan nan nan nan nan nan nan nan nan nan nan nan nan nan nan nan nan nan nan nan nan nan nan nan nan nan nan nan nan nan nan nan nan nan nan -5 -5 -6 -7 nan nan nan nan nan nan nan nan nan nan nan nan nan nan nan nan nan nan nan nan nan nan nan nan nan nan nan nan nan nan nan nan nan nan nan nan nan nan nan
nan nan nan nan nan nan nan nan nan nan nan nan nan nan nan nan nan nan nan nan nan nan nan nan nan nan nan nan nan nan nan nan nan nan nan nan nan nan nan nan nan -4 -2 -3 -3 -3 -7 nan nan nan nan nan nan nan nan nan nan nan nan nan nan nan nan nan nan nan nan nan nan nan nan nan nan nan nan nan nan nan nan nan nan nan nan nan nan nan
nan nan nan nan nan nan nan nan nan nan nan nan nan nan nan nan nan nan nan nan nan nan nan nan nan nan nan nan nan nan nan nan nan nan nan nan nan nan nan nan nan nan nan nan nan nan nan nan nan nan nan nan nan nan nan nan nan nan nan nan nan nan nan nan nan nan nan nan nan nan nan nan nan nan nan nan nan nan nan nan nan nan nan nan nan nan
nan nan nan nan nan nan nan nan nan nan nan nan nan nan nan nan nan nan nan nan nan nan nan nan nan nan nan nan nan nan nan nan nan nan nan nan nan nan nan nan nan nan nan nan nan nan nan nan nan nan -5 nan nan nan nan nan nan nan nan nan nan nan nan nan nan nan nan nan nan nan nan nan nan nan nan nan nan nan nan nan nan nan nan nan nan nan
nan nan nan nan nan nan nan nan nan nan nan nan nan nan nan nan nan nan nan nan nan nan nan nan nan nan nan nan nan nan nan nan nan nan nan nan nan nan nan nan nan nan nan nan nan nan nan nan nan nan nan 0 nan nan nan nan nan nan nan nan nan nan nan nan nan nan nan nan nan nan nan nan -20 -20 -13 nan nan nan nan nan nan nan nan nan nan nan
Wind_Speed
2 2 2 2 2 2 2 3 3 3 3 2 2 2 3 3 4 4 5 5 5 4 4 4 4 5 7 8 9 8 8 7 7 6 6 6 5 5 5 4 4 4 3 3 3 2 2 2 2 3 4 4 4 3 2 1 2 2 3 4 5 6 7 8 8 9 9 10 10 10 10 10 10 10 9 9 8 8 8 8 8 8 9 9 9 10
2 2 1 2 2 2 2 3 3 3 2 2 2 2 2 3 3 3 3 3 3 3 3 3 4 4 5 6 7 7 7 6 6 5 5 5 5 4 4 4 3 3 3 2 2 2 1 2 2 3 3 3 2 1 0 1 1 2 3 4 5 6 7 8 8 9 9 10 10 10 10 10 10 10 9 9 9 9 8 8 9 9 9 9 10 10
2 2 2 2 2 2 2 2 3 3 3 3 2 2 2 3 2 2 1 1 2 2 2 2 3 3 4 4 5 6 6 5 5 5 5 4 4 4 4 3 3 2 2 1 1 1 1 2 2 2 2 1 1 1 1 1 2 2 3 4 5 6 7 8 8 9 9 10 10 10 9 9 9 9 9 9 9 9 9 9 9 9 9 9 10 10
2 2 2 1 2 2 2 2 2 2 2 2 1 1 2 2 2 1 1 1 1 1 2 2 2 2 2 3 4 5 5 5 4 4 4 4 3 3 3 2 2 1 1 1 1 1 2 1 1 1 1 1 1 1 1 2 2 3 4 4 5 6 7 8 8 9 10 10 10 10 9 9 9 9 9 9 9 9 9 9 9 9 9 9 10 10
2 2 2 2 2 2 2 1 1 1 1 0 0 0 1 1 1 1 1 1 0 1 1 1 1 1 1 2 2 3 4 4 3 3 3 3 3 2 2 2 2 2 2 1 1 1 1 1 0 0 0 0 0 1 1 2 3 3 4 5 6 7 7 8 9 9 10 10 10 10 10 9 9 9 9 9 9 9 9 9 9 9 9 9 9 10
2 2 2 1 2 2 2 1 1 0 0 0 1 1 1 1 1 1 1 1 0 0 0 0 1 1 1 1 2 2 2 2 2 2 2 2 2 2 2 2 2 2 2 2 1 1 1 1 1 1 1 1 1 2 2 3 4 5 5 6 7 8 8 9 9 10 10 11 11 11 11 10 10 9 9 9 9 9 9 10 10 10 10 10 10 10
2 2 2 1 1 1 1 1 0 0 1 1 1 1 1 1 1 1 1 1 1 1 1 1 1 1 1 2 2 2 2 2 2 2 2 1 1 2 2 2 2 2 2 2 2 1 1 1 1 1 1 1 2 3 4 4 5 6 7 7 8 9 9 10 10 11 11 11 11 11 11 11 10 10 10 9 9 9 10 10 10 10 10 10 10 10
2 2 2 2 2 1 1 1 1 1 1 1 1 1 1 2 1 1 1 1 1 1 1 1 1 1 1 2 2 2 1 1 2 2 2 2 2 2 2 2 2 2 2 2 2 1 1 1 1 2 2 2 3 4 5 5 6 7 8 8 9 10 10 11 11 11 12 12 12 12 12 11 11 10 10 10 10 10 10 10 10 10 10 10 10 10
3 2 2 2 2 2 2 1 1 1 1 1 1 1 1 2 2 2 2 1 1 0 0 1 1 1 1 1 1 1 2 1 1 1 1 1 1 2 2 2 2 1 1 1 1 1 1 2 2 3 3 4 5 5 6 7 7 8 9 9 10 11 11 12 12 12 12 12 12 12 12 12 11 11 10 10 10 10 10 10 10 10 10 10 10 10
3 3 2 2 2 1 1 1 2 2 2 2 2 2 2 1 1 2 2 2 1 1 0 0 0 1 1 1 1 2 2 2 2 2 3 2 3 3 2 1 1 1 0 1 1 2 3 3 4 4 5 6 6 7 7 8 8 9 9 10 11 12 12 12 12 12 12 12 12 12 12 11 11 11 11 10 10 10 10 10 10 10 10 10 10 10
3 2 2 2 1 1 1 1 1 2 2 2 2 2 2 1 1 1 1 2 2 2 1 1 1 1 1 1 1 1 1 1 0 1 2 2 2 2 1 1 1 1 1 2 3 4 5 5 6 6 6 7 7 8 8 8 9 9 10 11 11 12 12 12 12 12 12 12 11 11 11 11 11 11 10 10 10 10 10 10 10 9 9 9 10 10
2 2 2 2 2 1 1 1 1 2 2 2 2 2 2 1 1 1 1 0 1 2 2 1 1 1 1 1 1 1 1 1 1 0 1 1 1 1 1 1 2 2 3 4 5 5 6 7 7 7 7 7 7 8 8 8 9 10 10 11 11 11 12 11 11 11 11 11 11 11 11 10 10 10 10 10 10 10 10 9 9 9 9 9 9 9
2 2 2 2 2 2 2 2 2 2 2 2 2 1 1 1 1 1 2 1 1 1 1 1 1 1 1 1 1 1 1 1 1 1 1 1 1 2 1 1 2 2 2 3 3 4 5 6 6 7 7 7 7 8 8 8 8 9 9 10 10 10 10 10 10 10 10 10 10 10 10 10 10 10 10 10 10 10 9 9 9 9 9 9 9 9
2 2 2 2 2 2 2 2 3 2 2 1 0 1 1 1 1 1 1 1 1 1 1 1 1 1 2 1 1 1 1 1 1 1 1 1 1 1 1 1 1 1 1 2 2 3 4 5 4 5 6 6 7 7 7 8 8 8 8 9 9 9 9 9 9 9 9 9 9 9 9 9 9 9 9 9 9 9 9 9 9 9 9 9 9 9
2 2 2 2 2 2 2 2 2 1 1 1 1 1 1 1 1 1 1 1 0 1 0 1 1 1 2 1 1 1 1 1 1 1 1 1 1 1 1 1 1 1 2 2 2 3 4 3 3 3 4 5 6 6 6 6 7 8 8 8 9 9 9 9 9 9 9 9 9 9 9 9 9 9 9 9 9 9 9 9 9 9 9 9 9 9
2 2 3 3 2 2 2 1 1 1 2 2 1 1 0 1 1 0 1 0 0 0 1 1 2 1 2 2 1 1 1 1 1 1 1 2 1 0 1 1 1 2 2 2 2 2 3 3 3 3 3 5 6 6 5 5 6 8 8 8 9 9 8 8 8 8 8 8 8 8 8 8 8 8 9 9 9 9 9 9 9 9 9 9 9 10
2 2 2 2 2 2 1 1 1 1 2 1 1 1 1 1 1 1 1 1 1 1 1 1 1 1 1 2 1 1 2 1 1 1 1 2 1 1 1 0 1 2 2 2 2 2 3 3 3 3 3 5 6 6 6 6 7 8 9 9 9 9 9 9 9 8 8 8 8 8 8 8 8 8 9 9 9 9 9 9 9 9 10 10 10 10
1 1 1 1 1 2 2 1 1 1 1 1 1 1 1 1 1 1 1 1 1 1 1 1 1 1 1 1 2 1 2 1 1 1 2 2 2 1 0 0 1 2 2 2 2 2 3 3 3 3 4 6 7 7 7 8 8 9 9 9 9 9 9 9 9 9 9 8 8 8 8 8 9 9 9 9 9 9 10 10 10 10 10 11 11 11
1 1 1 1 1 2 2 2 1 1 1 1 1 2 1 1 0 0 0 1 1 1 1 1 1 1 2 1 1 2 1 1 1 1 2 2 2 1 0 1 1 2 2 2 2 3 3 3 3 5 6 7 8 8 9 9 9 10 10 10 10 10 10 9 9 9 9 9 9 9 9 9 9 9 9 10 10 10 10 10 11 11 11 11 11 12
1 1 0 1 1 2 2 2 1 1 2 2 1 1 1 1 1 1 1 0 1 1 1 1 1 1 2 1 1 2 1 1 1 1 1 2 2 2 1 1 1 2 2 2 2 2 2 2 3 4 7 8 8 9 9 9 10 10 10 10 10 10 10 10 10 10 10 10 10 10 10 10 10 10 10 10 10 10 11 11 11 11 11 11 12 12
1 1 1 1 1 1 1 2 2 3 3 2 1 0 1 1 1 1 1 0 0 0 1 1 1 1 1 1 1 2 2 1 1 1 1 2 2 2 1 1 1 1 2 2 2 2 2 2 2 3 5 7 8 9 9 9 9 9 10 10 10 10 10 10 10 10 10 10 10 10 10 10 10 10 10 10 11 11 11 11 11 11 11 12 12 12
1 1 2 2 2 2 2 3 4 4 3 2 1 1 0 0 0 0 1 1 0 0 1 1 1 1 2 2 2 1 2 1 1 1 1 1 2 2 1 0 0 1 2 2 2 2 2 2 2 3 5 7 8 8 8 8 8 9 9 9 10 10 10 10 10 10 10 10 10 10 10 10 10 10 10 10 10 11 11 11 11 11 11 12 12 12
1 2 2 3 3 3 3 3 3 2 2 2 2 2 2 2 2 2 2 1 1 1 1 2 2 2 1 2 2 1 1 1 1 0 1 1 2 2 1 0 0 1 2 2 2 2 2 2 3 3 5 7 7 7 7 7 7 8 8 9 9 9 9 9 9 10 10 10 10 10 10 10 10 10 10 10 10 10 10 11 11 11 11 12 12 12
2 3 4 3 3 3 2 2 2 2 1 1 2 2 2 1 2 2 2 2 2 1 2 2 2 2 2 2 2 2 2 2 1 1 1 1 2 2 1 1 1 2 2 2 2 2 3 3 3 3 4 5 5 4 4 5 6 7 7 7 7 7 8 8 8 8 8 8 8 8 9 9 9 9 9 9 10 10 10 10 11 11 11 12 12 13
3 3 3 3 3 3 3 3 3 2 2 1 1 1 1 0 0 1 1 1 1 1 2 2 2 2 2 3 2 2 2 2 2 1 1 1 2 2 2 2 2 2 2 2 2 2 3 3 3 3 3 2 1 1 2 4 5 5 6 5 5 5 5 6 6 6 7 7 7 8 8 9 9 9 9 10 10 10 11 11 11 12 12 13 13 13
5 5 5 5 6 6 5 5 5 4 3 2 1 1 0 0 1 1 1 2 2 2 2 2 2 2 2 2 2 2 2 2 2 2 1 1 1 2 2 2 1 2 2 2 2 3 3 3 3 3 2 1 1 1 2 3 4 4 4 4 4 4 4 5 6 6 7 7 8 8 9 9 9 10 10 10 11 11 11 11 12 12 12 13 13 13
8 8 9 8 7 7 6 5 5 4 3 3 2 2 1 1 1 1 2 2 2 2 2 2 2 2 2 1 1 1 2 2 2 2 1 1 1 2 2 1 1 1 2 2 3 3 4 4 3 2 2 0 1 1 2 3 4 4 4 4 4 5 5 6 6 7 8 8 9 9 9 10 10 10 11 11 11 11 12 12 12 12 12 12 11 11
8 8 7 7 6 5 4 4 3 3 2 3 3 3 2 2 1 2 2 2 2 2 2 2 2 2 2 1 1 0 1 2 2 2 1 1 1 1 2 1 1 1 2 2 3 4 5 4 3 2 1 0 0 1 2 4 4 5 5 6 6 6 6 7 7 8 8 9 9 10 10 10 10 11 11 11 11 11 12 12 12 12 11 10 7 6
6 6 5 5 4 3 2 2 1 1 1 1 2 2 2 1 2 2 2 2 2 2 2 2 2 2 2 2 2 1 1 1 2 2 2 1 1 1 1 1 1 1 2 2 2 3 3 2 1 1 0 0 1 2 2 4 4 5 6 7 7 7 7 8 8 8 8 9 9 10 10 10 11 11 11 11 11 12 12 12 12 10 8 7 6 5
4 4 4 4 4 3 2 1 1 1 1 1 2 2 1 1 2 2 2 2 2 2 2 2 2 2 2 2 2 1 1 1 2 2 2 1 1 1 1 1 1 1 1 1 2 2 2 1 1 1 1 1 2 2 2 3 3 4 4 5 6 6 7 7 7 8 8 9 9 10 10 11 11 11 11 11 12 12 12 12 11 9 5 5 4 5
3 3 2 2 2 2 2 2 2 2 3 3 3 2 2 2 2 2 2 2 2 2 2 2 2 2 2 2 1 1 1 1 2 2 2 1 1 1 1 1 1 1 1 1 1 1 1 0 1 1 1 1 2 2 2 2 2 2 2 3 3 4 6 6 7 7 8 9 9 10 10 11 11 11 11 12 12 12 12 12 11 8 5 4 4 4
1 1 1 1 1 1 1 2 2 2 2 2 2 2 2 2 2 2 2 2 2 2 2 2 2 2 2 2 2 2 1 1 2 2 2 1 1 1 1 1 1 1 1 0 1 1 1 1 1 0 1 1 2 2 2 2 2 2 2 2 2 3 5 5 6 6 7 8 9 9 10 10 11 11 11 11 12 12 12 12 11 8 5 4 4 5
0 1 1 1 2 2 2 2 2 2 2 2 2 2 2 2 2 2 2 2 2 2 2 2 2 2 2 2 2 2 1 1 2 3 2 1 1 1 1 1 1 1 1 1 1 1 1 2 2 2 2 2 2 2 2 2 2 2 2 2 2 2 4 4 4 5 5 6 7 7 8 9 10 10 10 11 11 11 11 11 11 9 7 4 4 4
1 2 2 2 2 2 2 2 2 2 2 2 2 2 2 2 2 2 2 2 2 2 2 2 2 2 2 2 2 2 2 1 3 4 2 1 1 1 1 1 1 2 1 1 1 1 2 2 2 2 2 2 2 2 2 2 2 2 2 2 2 2 3 3 3 3 4 4 4 4 5 6 7 8 9 9 10 10 10 10 11 10 10 7 5 4
2 2 2 2 2 2 2 2 2 2 2 2 2 2 2 2 2 2 2 2 2 2 2 2 2 2 2 2 2 2 2 1 3 4 2 1 1 1 1 1 1 2 2 2 1 1 2 2 2 2 2 2 2 2 2 2 2 2 2 2 2 2 2 2 3 3 3 3 3 3 3 3 4 5 6 7 8 9 10 10 11 11 11 10 9 6
2 2 3 3 3 2 2 2 2 2 2 2 2 2 2 2 2 2 2 2 2 2 2 2 2 2 2 2 2 2 2 1 2 3 2 1 1 1 1 1 1 2 2 2 2 2 2 2 3 3 3 3 2 2 2 2 2 1 2 2 3 3 3 3 3 3 3 3 3 3 3 3 3 4 4 7 8 9 10 10 11 11 12 12 12 11
2 3 3 3 2 2 2 2 1 1 2 1 1 1 2 1 1 1 1 1 1 1 2 2 2 3 3 3 2 2 2 2 1 1 0 0 1 1 1 2 2 2 2 2 2 2 2 2 3 3 3 3 2 2 2 1 1 1 1 2 2 2 3 3 3 3 3 3 3 3 3 3 3 4 4 7 8 9 9 10 11 11 12 13 13 13
2 3 3 2 2 2 2 1 1 1 1 1 1 1 1 1 1 1 1 1 1 1 2 2 2 3 5 5 4 4 3 3 3 3 2 2 2 1 2 2 2 2 2 2 2 2 2 3 3 3 2 2 3 3 3 2 2 2 2 2 2 2 3 3 3 3 3 4 4 4 4 4 3 3 4 5 5 5 5 6 7 9 10 11 12 13
2 2 3 3 2 2 1 1 1 1 1 0 0 0 0 1 1 1 1 1 2 2 3 3 3 3 4 5 5 6 5 5 4 4 2 2 1 2 2 2 2 2 2 2 2 2 2 3 3 3 3 3 3 3 3 2 2 3 3 3 3 3 3 3 3 3 3 3 4 4 4 4 3 3 3 3 3 3 3 3 4 5 6 5 7 9
3 3 3 3 2 2 1 1 1 0 1 1 0 0 1 1 2 2 2 3 3 3 4 4 4 4 4 4 5 6 6 5 5 5 3 3 2 2 3 3 3 3 3 3 3 3 3 3 4 4 4 4 3 3 3 3 3 3 3 3 3 3 3 3 3 3 3 3 3 3 3 3 3 3 3 3 3 3 3 3 3 4 4 3 3 4
3 3 2 2 2 1 1 1 1 1 1 1 0 1 1 2 2 2 3 3 3 3 3 4 4 3 4 4 5 5 6 6 6 6 4 4 4 4 4 3 3 3 3 3 3 3 4 4 5 5 5 4 5 5 5 4 4 5 5 4 3 3 3 3 3 3 3 3 3 3 4 4 4 4 3 4 3 3 3 3 4 4 4 3 3 3
4 3 2 1 1 0 1 1 1 1 1 1 1 2 2 2 2 2 2 2 2 3 3 3 3 3 3 4 4 5 6 6 6 6 6 6 6 5 4 4 4 3 3 4 4 4 4 5 5 5 5 4 4 5 5 4 5 5 5 4 4 4 4 4 4 3 3 3 3 3 4 4 3 3 3 4 4 4 4 4 5 5 5 4 3 3
3 2 2 1 1 1 1 1 2 2 2 2 2 3 3 2 2 2 2 2 2 2 2 2 2 2 3 3 3 3 4 5 6 6 6 6 6 6 5 5 4 4 3 4 4 5 5 5 5 5 5 4 5 5 6 5 4 4 4 4 4 3 3 3 2 2 2 3 3 3 3 3 3 3 3 4 4 4 4 5 7 8 7 5 4 4
2 2 2 1 1 1 2 2 2 2 2 3 3 3 3 3 3 3 2 2 2 2 2 2 2 2 3 3 3 3 3 4 5 5 6 7 7 6 6 5 5 5 5 5 4 4 4 5 5 5 5 5 5 5 6 5 4 4 4 4 4 4 3 3 3 3 3 3 3 3 3 3 3 3 3 4 4 4 4 4 4 5 6 5 5 5
2 2 2 2 2 2 2 2 3 3 3 3 3 3 3 3 3 3 2 2 2 2 2 2 2 2 2 3 3 3 2 3 3 4 4 6 8 8 6 5 5 5 6 6 5 4 4 4 4 4 4 4 5 6 6 6 5 5 5 5 5 5 5 4 4 3 4 3 3 3 3 3 3 3 3 4 4 4 4 4 5 5 5 5 5 5
2 2 2 2 2 3 3 3 3 3 3 3 3 3 3 3 2 2 2 2 2 2 2 2 2 2 2 2 2 2 2 2 3 3 3 4 5 6 6 6 5 6 6 6 5 5 5 5 4 4 4 5 5 6 6 6 5 5 5 5 5 5 5 4 4 4 4 4 3 3 3 3 3 3 4 4 5 5 4 4 5 5 5 5 5 6
2 2 2 2 2 3 3 3 3 3 3 3 3 3 3 2 2 2 2 2 2 2 2 2 3 3 3 3 2 2 2 2 2 3 3 3 4 4 5 5 6 6 6 6 6 6 6 5 5 5 5 5 6 6 6 5 5 5 5 4 4 4 4 4 4 4 4 3 3 3 2 2 3 3 4 5 5 5 5 5 5 5 6 5 6 6
3 3 2 2 2 2 3 3 3 3 3 3 3 3 3 3 3 3 2 2 2 2 3 3 3 3 3 3 3 3 3 2 2 2 2 2 3 3 4 4 5 5 6 6 6 7 7 6 6 6 6 6 6 6 6 5 5 5 5 4 4 4 4 4 3 3 3 3 3 3 2 3 3 4 5 5 5 5 5 5 5 5 5 5 5 5
3 3 3 3 3 3 3 3 3 3 3 3 2 2 3 3 4 4 3 2 2 2 2 3 3 3 3 3 3 3 3 3 2 2 2 2 2 2 3 3 3 3 4 4 5 5 6 7 8 9 9 8 8 7 7 6 5 5 4 4 4 4 4 4 4 3 3 3 3 3 3 4 4 5 5 6 7 7 6 6 5 5 5 5 5 5
3 3 3 3 3 3 3 3 3 3 3 3 3 2 2 3 3 3 3 2 2 2 3 3 3 3 3 3 3 3 3 3 2 2 2 2 2 2 2 2 2 2 2 3 3 3 4 5 7 9 12 12 11 9 8 7 5 4 4 4 4 4 4 4 4 3 4 4 4 4 4 4 4 4 5 6 7 8 7 7 6 5 4 4 5 5
3 3 3 3 3 3 3 3 3 3 3 3 3 2 2 2 2 3 3 3 3 3 3 3 3 3 4 4 3 3 3 3 2 2 2 2 2 2 2 2 2 2 2 2 2 2 2 3 3 5 9 14 16 14 9 7 5 4 4 4 4 3 3 4 4 4 4 4 4 4 4 4 4 4 4 5 6 7 7 7 6 5 4 4 4 5
Wind_Direction
87 88 85 87 88 84 66 53 54 61 72 67 61 56 61 67 63 54 45 48 53 59 65 67 72 74 74 70 69 69 72 76 80 84 88 92 96 98 100 101 102 103 104 106 108 109 105 96 85 75 68 66 65 60 48 15 337 319 313 314 314 315 317 319 320 320 320 318 317 317 317 317 318 320 322 322 322 320 317 314 313 313 313 312 311 309
102 100 91 88 91 92 84 61 51 48 52 61 60 56 55 64 64 57 46 55 62 67 71 73 74 77 81 80 76 74 76 80 84 89 94 99 104 108 110 112 114 116 117 123 124 120 103 86 73 68 68 71 75 80 78 290 293 298 302 310 314 316 318 321 322 322 321 320 319 319 319 319 320 321 321 319 317 314 312 311 311 311 311 311 310 308
130 121 107 93 91 94 93 74 61 50 44 49 51 54 59 65 61 48 24 48 68 78 80 82 83 83 85 88 84 80 80 82 86 90 95 101 107 111 115 118 120 121 120 118 100 71 51 52 56 62 69 85 120 189 228 258 279 294 305 312 315 317 319 321 321 322 321 320 320 319 319 318 318 317 316 314 313 312 311 311 312 312 312 311 311 309
140 129 119 110 95 86 83 78 73 66 55 48 46 58 77 83 77 49 329 357 58 81 86 86 88 90 93 93 88 83 79 79 81 83 87 93 98 104 110 112 109 101 84 51 27 19 16 26 42 68 104 154 201 226 250 277 295 306 311 314 316 316 317 318 319 319 319 318 317 316 313 311 309 308 308 308 308 308 309 309 310 310 309 309 309 307
132 122 125 129 116 99 85 79 79 79 80 63 30 176 143 125 133 170 239 270 340 58 81 86 92 98 108 102 91 84 78 74 73 72 71 74 76 75 74 72 63 51 38 30 20 13 9 18 54 130 143 181 242 273 298 310 315 315 314 314 314 314 314 314 314 314 313 312 310 308 306 303 300 299 299 299 300 301 302 303 304 304 304 303 302 301
120 115 124 128 119 111 104 101 92 82 83 248 251 247 237 183 185 196 210 206 202 190 142 117 123 131 132 115 103 96 91 87 81 73 66 62 55 47 41 42 40 37 38 40 42 45 43 57 72 76 57 12 336 323 319 319 316 314 313 312 311 310 309 308 308 307 306 304 303 301 299 296 293 291 290 290 291 292 293 294 296 296 296 296 295 294
114 115 122 119 113 110 116 123 147 201 210 240 242 241 235 229 225 224 221 210 204 198 191 178 178 172 152 128 127 131 134 138 141 137 121 105 79 61 50 47 46 46 50 56 61 64 61 55 43 23 1 343 327 319 315 313 311 310 310 308 307 306 304 303 301 300 298 296 295 294 292 290 287 285 283 283 283 284 286 288 289 291 291 291 290 289
121 128 136 135 131 129 132 143 181 219 225 235 235 224 209 205 205 208 209 208 208 201 192 180 185 179 150 127 131 138 130 148 158 158 146 140 128 111 94 85 75 67 63 61 56 49 36 17 352 333 323 314 310 307 306 306 306 306 305 303 302 301 299 297 296 294 292 290 289 287 286 284 282 280 279 278 279 280 282 284 286 287 288 288 287 286
126 138 149 154 153 150 149 158 181 203 218 239 246 240 222 203 190 179 177 175 173 178 201 191 179 155 120 104 92 74 49 31 25 29 37 59 77 88 97 102 99 88 68 48 21 349 329 311 303 299 297 296 295 296 297 299 299 300 299 298 296 295 294 293 292 290 288 286 284 282 281 279 278 277 276 277 278 279 281 282 284 285 286 286 285 285
131 141 145 146 148 151 157 162 170 180 195 223 242 252 256 233 202 180 174 160 149 139 136 20 75 90 91 82 69 56 45 38 38 38 35 39 35 33 41 49 54 49 20 309 289 282 280 278 278 280 282 284 286 288 290 292 293 294 294 293 293 292 292 290 289 287 285 283 281 279 277 276 275 274 275 276 277 278 279 280 282 282 283 283 283 283
139 139 134 134 142 158 173 164 163 174 193 211 227 237 250 260 259 231 196 162 150 144 142 100 54 41 48 45 42 36 23 10 50 100 98 92 66 43 32 10 337 295 263 260 260 261 262 263 265 269 273 277 280 283 286 288 290 291 291 291 291 291 290 289 287 285 282 280 278 276 275 274 273 273 273 274 275 276 277 278 279 279 279 280 281 281
139 139 137 147 159 170 176 170 170 183 199 208 210 207 198 208 313 313 288 181 138 132 131 119 98 72 48 27 17 10 354 324 303 249 150 151 160 175 196 215 227 234 240 246 250 253 255 257 259 264 269 273 278 281 284 286 288 289 290 290 291 290 289 287 285 282 280 278 276 275 274 273 272 272 272 273 274 274 275 275 275 276 276 277 278 279
130 135 143 160 170 176 176 176 181 192 204 211 208 186 140 104 33 337 313 331 47 76 84 113 126 116 88 60 29 360 331 311 304 296 268 216 200 198 203 217 226 232 238 247 251 255 256 259 262 266 269 273 278 281 283 285 287 289 290 290 290 289 287 285 283 280 278 276 274 273 272 272 271 271 271 272 273 273 273 273 272 273 273 274 276 276
133 144 158 173 181 185 185 186 188 191 194 191 119 66 73 79 60 318 289 291 64 73 55 280 209 152 112 95 65 12 318 298 289 279 266 245 222 199 198 239 257 265 266 268 269 268 269 271 272 272 273 277 279 282 286 288 290 291 292 291 290 288 286 283 281 278 276 274 272 270 269 269 269 269 269 270 271 271 270 270 270 271 272 273 274 275
153 167 179 185 185 183 185 191 191 179 135 86 70 73 97 122 158 225 252 238 133 108 181 253 229 185 122 97 67 19 315 293 283 278 273 264 227 162 153 236 261 268 270 269 270 273 277 277 277 277 280 281 284 289 295 299 298 295 293 291 288 286 284 282 279 276 273 271 269 267 266 266 266 266 267 268 269 269 269 269 270 271 272 273 273 273
169 181 189 187 178 168 166 173 150 108 87 80 76 86 140 150 167 223 275 317 7 19 248 259 244 203 131 99 60 8 332 315 306 304 304 299 290 177 150 219 253 264 268 271 275 279 284 283 282 283 284 285 287 290 293 295 292 290 288 286 285 284 283 281 279 276 273 270 268 266 265 265 265 265 265 265 266 267 268 268 269 270 271 272 272 272
176 190 195 180 160 141 129 112 90 83 90 96 92 68 27 35 29 11 352 352 338 299 270 276 278 264 155 128 98 25 341 345 340 331 320 304 296 286 134 221 262 273 280 284 287 291 293 291 291 291 290 286 286 286 285 284 283 282 283 283 283 283 283 282 281 279 277 274 271 269 267 265 264 264 264 264 264 265 266 266 267 268 269 270 270 271
179 196 198 167 139 124 120 116 109 108 122 129 120 97 62 44 26 6 344 323 303 292 292 292 292 296 297 132 111 80 336 360 355 333 315 297 294 299 63 166 257 272 280 283 285 288 289 289 290 289 287 285 284 282 280 278 278 278 279 279 280 281 282 282 282 282 280 277 275 272 270 267 265 264 263 263 263 264 264 265 265 266 267 268 269 269
174 191 195 142 120 120 129 139 147 150 145 133 128 126 123 119 123 264 276 297 311 320 329 316 304 296 293 2 87 97 357 18 356 325 304 290 286 283 198 197 231 254 270 277 282 283 284 283 283 282 281 280 279 277 276 275 275 275 276 276 277 278 279 280 280 280 280 279 277 275 273 270 268 266 265 264 264 264 264 264 264 265 266 267 267 268
163 171 151 114 122 134 147 140 121 94 71 66 79 114 143 157 178 200 216 284 340 345 338 315 295 284 282 330 80 95 87 30 356 325 296 288 285 282 261 239 248 266 279 282 284 284 280 278 276 275 274 274 274 273 273 273 274 274 274 275 275 275 276 277 278 278 278 278 277 276 275 273 271 269 268 266 266 265 264 264 265 265 265 266 267 267
153 141 99 86 116 132 124 91 71 59 50 39 27 356 183 186 192 191 166 140 105 284 268 262 270 285 316 337 28 66 75 37 6 335 304 293 286 283 279 281 292 293 289 285 282 278 274 269 266 265 269 272 273 273 274 275 275 276 275 275 274 274 274 274 275 275 276 276 275 274 273 272 271 269 268 267 266 266 265 265 265 266 266 267 268 268
127 112 82 54 47 58 70 71 69 65 57 32 358 326 327 329 323 358 80 80 43 279 270 276 304 332 349 332 341 15 64 49 21 326 300 288 279 275 262 90 314 287 282 281 279 278 277 273 269 269 271 274 275 276 277 278 278 278 276 274 273 272 271 271 272 272 272 272 271 271 270 270 269 268 268 267 267 267 267 267 268 268 269 270 270 270
90 88 75 54 49 54 72 83 84 78 61 34 18 16 18 7 4 5 12 7 354 335 324 325 327 325 308 284 278 274 115 113 130 220 258 266 272 274 277 137 247 268 272 279 288 294 296 291 285 280 278 277 277 278 279 281 280 278 275 272 269 268 266 267 267 268 269 270 270 271 271 271 271 271 271 271 271 271 271 272 272 273 273 274 274 274
76 78 74 65 62 66 82 93 96 88 69 51 46 46 39 18 7 1 355 345 333 322 311 304 293 278 257 243 235 216 160 148 157 190 232 257 272 285 307 303 286 278 278 288 300 306 304 295 286 279 276 276 278 280 280 280 278 276 271 267 265 264 264 266 268 271 272 274 276 277 277 277 277 277 277 277 277 277 277 277 277 278 278 278 278 277
75 85 91 92 89 86 85 93 97 98 91 86 87 93 99 61 345 316 295 284 275 269 266 266 264 259 249 234 219 190 145 148 161 184 224 259 276 286 297 299 294 290 291 300 306 305 297 289 283 276 267 261 255 259 269 273 274 273 271 268 268 269 272 275 278 281 282 283 283 283 282 282 282 281 281 281 281 280 280 280 280 280 280 280 279 279
80 90 99 98 93 87 82 85 87 86 78 67 58 53 63 227 240 242 241 237 234 234 240 249 254 256 252 241 214 173 137 144 161 188 214 252 277 284 286 290 293 298 299 302 300 295 286 283 280 276 270 221 161 182 238 262 271 275 279 278 280 283 287 287 288 288 286 285 284 283 282 282 282 281 281 281 281 281 280 280 280 280 280 281 280 280
84 88 92 92 90 85 81 80 78 73 62 47 30 11 347 318 286 266 258 245 236 233 238 249 258 264 265 257 233 175 138 146 163 187 198 231 269 278 280 292 305 308 301 296 288 282 278 275 272 272 277 305 141 182 230 249 260 269 275 275 277 280 282 283 283 284 282 282 281 280 280 280 280 280 280 280 280 280 280 280 280 281 281 282 281 280
91 92 94 94 93 90 86 86 82 72 54 37 19 1 341 319 293 276 266 266 262 258 255 259 266 273 281 281 280 254 145 155 160 165 165 186 244 266 273 293 306 307 299 292 284 277 270 263 258 259 276 325 296 241 238 241 247 254 258 262 265 268 272 274 276 277 278 278 278 277 277 278 278 278 278 278 279 279 279 280 280 281 282 281 280 277
112 114 115 117 117 118 119 122 120 102 48 13 353 339 320 298 278 270 270 282 287 284 274 269 270 274 281 288 295 294 259 170 142 133 140 162 222 255 266 288 299 303 306 301 291 277 256 238 226 217 270 277 264 254 244 237 238 243 249 256 260 263 266 269 271 272 273 274 274 275 275 275 276 276 276 277 277 278 278 279 279 280 281 279 276 273
152 152 152 154 156 161 176 199 219 235 253 270 281 282 270 259 257 261 272 285 286 282 273 271 270 271 275 282 284 277 252 145 118 120 138 168 220 259 282 302 308 308 321 318 309 293 261 189 149 142 181 231 240 241 239 233 232 236 245 257 263 266 266 266 267 268 269 271 271 272 272 273 273 274 275 275 276 276 276 276 277 277 277 275 274 272
178 178 183 182 183 188 204 225 240 249 254 257 255 249 237 234 238 249 260 266 266 262 261 261 263 263 264 265 265 261 246 113 119 134 151 182 237 275 306 306 298 294 311 322 318 310 302 307 133 146 180 232 245 248 248 246 246 247 253 263 269 271 268 265 265 265 267 268 270 270 271 272 272 273 273 274 274 274 274 274 273 273 271 270 270 270
178 179 228 243 244 237 232 233 236 241 247 249 246 239 229 226 228 235 244 247 247 247 247 250 253 255 254 246 249 256 275 110 137 156 163 188 247 276 289 280 278 275 270 238 248 275 292 307 323 338 313 291 284 278 271 264 260 257 258 260 266 268 267 266 265 265 267 269 271 272 273 273 273 273 274 273 273 272 272 271 270 268 265 265 266 267
249 250 256 257 254 246 236 228 225 226 229 235 235 231 224 220 221 225 231 236 238 239 238 241 244 246 248 244 245 253 280 123 145 157 164 179 245 273 276 274 278 282 285 253 236 239 257 280 298 310 308 296 288 280 273 264 255 248 244 248 256 266 271 273 272 272 272 274 276 277 278 278 277 276 275 274 272 271 269 268 266 264 260 261 262 266
263 258 257 254 250 244 237 229 224 222 222 227 228 226 216 212 215 219 224 228 231 233 235 236 239 242 244 244 242 246 264 156 136 142 161 169 239 277 290 292 293 294 292 275 260 254 257 269 280 289 292 290 286 281 274 262 251 239 229 237 248 263 272 275 275 275 275 276 278 280 280 280 279 278 277 275 273 271 269 267 264 262 259 258 258 262
258 260 258 256 251 246 239 233 229 229 228 229 225 219 211 210 211 213 216 219 223 227 234 240 247 251 253 252 248 245 254 134 125 134 155 168 214 274 293 292 292 291 289 282 278 275 274 276 283 289 296 298 294 285 271 256 241 225 214 225 235 245 253 256 261 265 270 271 271 270 271 271 274 275 276 276 274 273 271 268 266 263 260 258 257 257
256 256 256 254 249 245 239 236 238 242 242 232 218 205 201 210 213 214 211 216 222 228 234 245 256 264 269 270 266 265 274 359 103 124 152 174 203 236 262 270 278 282 284 283 282 282 284 286 290 291 292 291 289 281 267 252 233 215 215 225 232 236 240 244 248 254 262 264 264 263 261 261 264 268 273 276 277 276 274 272 268 265 262 259 257 256
251 252 252 251 248 244 239 236 240 247 251 238 215 192 187 202 217 223 213 220 240 252 251 254 257 261 262 266 270 277 289 313 332 351 336 324 282 256 249 257 265 269 275 279 283 286 289 289 288 287 282 275 273 276 281 288 286 270 254 251 252 255 257 256 254 254 255 256 257 257 256 259 262 267 272 277 278 278 277 274 271 267 264 261 259 257
253 254 254 251 249 244 234 231 234 240 243 236 215 191 180 193 214 232 229 214 237 256 262 259 259 259 256 259 263 269 277 285 293 305 327 339 326 291 263 263 263 264 266 270 276 280 282 282 282 282 277 271 274 282 296 306 305 296 289 288 287 283 276 266 258 252 250 253 255 258 259 261 263 267 272 274 275 275 275 273 270 268 266 264 261 259
253 253 254 252 249 242 229 225 228 230 228 216 182 148 209 234 239 244 240 224 223 227 235 241 248 252 252 254 256 259 261 263 266 272 284 287 278 265 260 261 262 262 264 264 266 266 265 266 268 271 276 279 282 287 295 297 297 296 297 297 290 278 265 258 254 252 253 258 264 268 269 268 267 266 267 267 267 267 268 268 268 267 266 266 265 263
247 247 250 251 249 242 225 219 209 173 112 94 84 51 270 261 252 245 239 234 231 228 228 230 236 242 245 247 249 249 247 247 246 245 241 228 222 226 239 246 253 258 260 257 254 251 250 255 259 263 268 274 279 283 285 284 284 286 289 287 281 270 263 265 267 267 267 266 268 270 270 268 265 263 262 261 262 263 264 267 270 271 270 268 270 270
247 249 249 251 249 244 216 176 140 123 122 135 181 224 234 240 241 238 234 233 231 230 227 225 230 235 239 237 237 236 236 234 233 230 224 212 208 210 224 234 243 249 252 252 249 246 243 249 254 259 262 267 272 274 273 271 272 273 274 273 272 275 280 277 273 268 264 259 256 256 259 262 263 262 263 264 263 263 264 267 269 271 271 265 261 261
254 256 258 259 246 181 147 148 156 165 174 192 214 226 228 229 231 232 231 231 229 227 223 221 225 232 240 238 234 229 225 222 220 218 214 205 201 203 214 225 234 241 245 248 248 246 243 245 250 254 257 262 266 270 270 268 267 267 266 268 275 280 282 271 261 251 247 247 248 250 255 261 264 267 269 270 269 268 266 263 263 264 264 261 256 253
258 262 270 272 244 170 161 174 186 195 200 209 219 225 226 226 226 229 233 237 237 236 231 226 228 236 247 252 247 235 221 210 207 206 205 198 196 198 209 218 227 234 238 242 245 246 245 245 247 249 252 256 260 264 269 270 268 265 262 265 271 277 281 270 261 254 250 252 254 257 260 265 268 271 272 270 268 266 265 264 263 262 260 259 256 253
259 263 266 263 243 211 196 197 200 204 209 217 221 223 222 220 221 225 230 237 243 244 241 236 235 241 249 255 256 250 226 198 192 194 199 196 194 195 204 214 223 231 235 238 241 244 247 247 247 248 250 253 257 261 265 267 268 266 262 260 259 258 258 266 274 277 276 270 265 263 260 264 267 268 270 268 265 262 260 259 259 259 258 256 254 253
254 253 250 242 233 223 216 213 209 208 210 216 218 219 216 214 214 217 222 232 241 245 244 238 237 240 244 244 248 245 226 187 177 182 195 199 198 197 199 208 219 228 234 236 238 240 244 247 250 251 251 252 253 256 260 264 267 267 264 261 258 255 254 259 264 267 268 266 264 260 255 256 261 267 268 268 265 263 259 258 258 258 257 254 252 251
242 242 239 233 227 225 224 220 215 212 212 214 216 214 210 205 204 209 219 227 237 242 241 236 235 239 246 246 247 244 230 192 173 172 182 191 192 192 197 206 215 224 231 235 238 239 241 245 249 254 258 257 255 254 254 257 261 264 265 262 260 259 259 259 257 255 256 259 260 259 255 255 259 264 268 270 270 268 263 259 258 257 256 254 252 250
227 230 232 230 228 226 225 222 219 216 217 217 215 211 204 198 197 203 213 219 228 236 239 236 235 238 244 248 250 249 245 221 193 177 175 178 181 186 194 204 213 221 227 232 236 238 241 242 244 248 253 257 259 257 254 252 253 257 260 260 260 260 260 258 255 252 253 256 259 260 260 260 263 266 269 271 271 269 265 260 257 254 253 252 252 251
221 226 230 231 230 229 228 224 222 221 222 221 219 212 203 197 198 203 210 214 221 230 237 235 236 237 240 243 244 245 246 242 226 204 187 181 180 184 192 200 209 217 225 231 236 240 241 240 238 238 240 246 252 256 256 252 250 251 254 257 258 259 260 260 258 256 256 257 257 256 253 257 261 265 270 272 271 270 267 263 259 255 253 253 255 255
218 224 229 231 232 232 230 226 223 223 224 224 222 216 206 204 205 208 208 210 217 226 233 236 237 239 241 241 241 241 241 239 235 225 215 203 199 197 198 201 206 215 224 232 237 242 245 243 238 234 231 233 239 247 254 252 251 250 252 253 255 257 261 262 262 261 260 257 252 247 241 246 252 257 264 269 270 271 270 267 264 259 256 255 257 258
218 222 225 228 230 232 233 230 229 228 228 227 226 222 214 205 201 200 201 207 215 224 231 236 239 243 245 245 243 241 237 233 229 223 218 214 212 210 209 206 209 218 231 239 242 244 247 246 239 232 226 224 226 232 243 248 250 251 252 252 252 254 259 262 261 258 255 254 250 243 237 240 243 247 252 261 266 269 271 270 267 263 258 257 257 258
218 219 221 224 227 231 234 234 235 235 235 234 233 231 226 217 207 199 197 204 212 220 229 234 239 244 248 249 249 246 241 235 230 224 218 212 211 211 211 209 210 218 233 245 249 249 249 254 251 239 228 220 218 218 226 233 240 246 250 250 249 250 254 259 258 256 254 254 252 247 240 240 241 243 246 255 263 269 272 271 270 267 262 261 262 263